Time,TemperatureF,DewpointF,PressureIn,WindDirection,WindDirectionDegrees,WindSpeedMPH,WindSpeedGustMPH,Humidity,HourlyPrecipIn,Conditions,Clouds,dailyrainin,SoftwareType,DateUTC
2013-01-14 00:04:00,14.0,7.8,30.31,WNW,292,3.0,8.0,76,0.00,,---,0.00,VWS V14.00,2013-01-14 06:04:00,
2013-01-14 00:09:00,14.0,7.8,30.31,WNW,292,3.0,5.0,76,0.00,,---,0.00,VWS V14.00,2013-01-14 06:09:00,
2013-01-14 00:14:00,14.0,7.8,30.31,WNW,292,4.0,5.0,76,0.00,,---,0.00,VWS V14.00,2013-01-14 06:14:00,
2013-01-14 00:19:00,13.8,7.7,30.32,WNW,292,2.0,2.0,76,0.00,,---,0.00,VWS V14.00,2013-01-14 06:19:00,
2013-01-14 00:24:00,13.8,7.7,30.32,WNW,292,6.0,7.0,76,0.00,,---,0.00,VWS V14.00,2013-01-14 06:24:00,
2013-01-14 00:29:00,13.8,7.7,30.32,WNW,292,3.0,5.0,76,0.00,,---,0.00,VWS V14.00,2013-01-14 06:29:00,
2013-01-14 00:34:00,13.8,7.7,30.33,WNW,292,3.0,3.0,76,0.00,,---,0.00,VWS V14.00,2013-01-14 06:34:00,
2013-01-14 00:39:00,13.6,7.7,30.33,WNW,292,2.0,5.0,77,0.00,,---,0.00,VWS V14.00,2013-01-14 06:39:00,
2013-01-14 00:44:00,13.6,7.7,30.33,WNW,292,3.0,3.0,77,0.00,,---,0.00,VWS V14.00,2013-01-14 06:44:00,
2013-01-14 00:49:00,13.6,7.7,30.34,WNW,292,4.0,4.0,77,0.00,,---,0.00,VWS V14.00,2013-01-14 06:49:00,
2013-01-14 00:54:00,13.6,8.9,30.34,WNW,292,2.0,3.0,81,0.00,,---,0.00,VWS V14.00,2013-01-14 06:54:00,
2013-01-14 00:59:00,13.6,7.7,30.34,WNW,292,2.0,2.0,77,0.00,,---,0.00,VWS V14.00,2013-01-14 06:59:00,
2013-01-14 01:04:00,13.5,7.9,30.35,WNW,292,3.0,3.0,78,0.00,,---,0.00,VWS V14.00,2013-01-14 07:04:00,
2013-01-14 01:10:00,13.5,7.9,30.35,WNW,292,2.0,3.0,78,0.00,,---,0.00,VWS V14.00,2013-01-14 07:10:00,
2013-01-14 01:15:00,13.5,7.9,30.35,WNW,292,3.0,3.0,78,0.00,,---,0.00,VWS V14.00,2013-01-14 07:15:00,
2013-01-14 01:20:00,13.8,8.5,30.36,WNW,292,2.0,4.0,79,0.00,,---,0.00,VWS V14.00,2013-01-14 07:20:00,
2013-01-14 01:25:00,14.0,8.7,30.36,WNW,292,2.0,3.0,79,0.00,,---,0.00,VWS V14.00,2013-01-14 07:25:00,
2013-01-14 01:30:00,13.8,8.5,30.36,WNW,292,1.0,4.0,79,0.00,,---,0.00,VWS V14.00,2013-01-14 07:30:00,
2013-01-14 01:35:00,14.0,8.7,30.36,WNW,292,3.0,5.0,79,0.00,,---,0.00,VWS V14.00,2013-01-14 07:35:00,
2013-01-14 01:40:00,14.0,8.7,30.36,WNW,292,3.0,5.0,79,0.00,,---,0.00,VWS V14.00,2013-01-14 07:40:00,
2013-01-14 01:45:00,14.0,9.0,30.36,WNW,292,2.0,4.0,80,0.00,,---,0.00,VWS V14.00,2013-01-14 07:45:00,
2013-01-14 01:50:00,14.0,9.0,30.37,WNW,292,3.0,4.0,80,0.00,,---,0.00,VWS V14.00,2013-01-14 07:50:00,
2013-01-14 01:55:00,13.8,8.8,30.37,WNW,292,0.0,4.0,80,0.00,,---,0.00,VWS V14.00,2013-01-14 07:55:00,
2013-01-14 02:00:00,13.8,8.8,30.37,WNW,292,4.0,4.0,80,0.00,,---,0.00,VWS V14.00,2013-01-14 08:00:00,
2013-01-14 02:05:00,13.8,8.8,30.37,WNW,292,3.0,3.0,80,0.00,,---,0.00,VWS V14.00,2013-01-14 08:05:00,
2013-01-14 02:10:00,13.5,8.5,30.37,WNW,292,2.0,3.0,80,0.00,,---,0.00,VWS V14.00,2013-01-14 08:10:00,
2013-01-14 02:15:00,13.5,8.5,30.37,WNW,292,3.0,5.0,80,0.00,,---,0.00,VWS V14.00,2013-01-14 08:15:00,
2013-01-14 02:20:00,13.5,8.5,30.38,WNW,292,4.0,6.0,80,0.00,,---,0.00,VWS V14.00,2013-01-14 08:20:00,
2013-01-14 02:25:00,13.5,8.5,30.38,WNW,292,3.0,5.0,80,0.00,,---,0.00,VWS V14.00,2013-01-14 08:25:00,
2013-01-14 02:30:00,13.6,8.6,30.38,WNW,292,1.0,5.0,80,0.00,,---,0.00,VWS V14.00,2013-01-14 08:30:00,
2013-01-14 02:35:00,13.8,8.8,30.38,WNW,292,3.0,6.0,80,0.00,,---,0.00,VWS V14.00,2013-01-14 08:35:00,
2013-01-14 02:41:00,13.8,8.5,30.38,WNW,292,3.0,4.0,79,0.00,,---,0.00,VWS V14.00,2013-01-14 08:41:00,
2013-01-14 02:46:00,13.8,8.8,30.38,WNW,292,1.0,3.0,80,0.00,,---,0.00,VWS V14.00,2013-01-14 08:46:00,
2013-01-14 02:51:00,13.8,8.8,30.40,WNW,292,2.0,4.0,80,0.00,,---,0.00,VWS V14.00,2013-01-14 08:51:00,
2013-01-14 02:56:00,13.8,9.1,30.40,WNW,292,2.0,5.0,81,0.00,,---,0.00,VWS V14.00,2013-01-14 08:56:00,
2013-01-14 03:01:00,13.8,9.1,30.40,WNW,292,1.0,4.0,81,0.00,,---,0.00,VWS V14.00,2013-01-14 09:01:00,
2013-01-14 03:06:00,13.8,9.1,30.40,WNW,292,2.0,5.0,81,0.00,,---,0.00,VWS V14.00,2013-01-14 09:06:00,
2013-01-14 03:11:00,13.8,9.1,30.40,WNW,289,3.0,7.0,81,0.00,,---,0.00,VWS V14.00,2013-01-14 09:11:00,
2013-01-14 03:16:00,13.8,9.1,30.40,WNW,289,3.0,6.0,81,0.00,,---,0.00,VWS V14.00,2013-01-14 09:16:00,
2013-01-14 03:21:00,13.6,8.9,30.40,WNW,288,4.0,6.0,81,0.00,,---,0.00,VWS V14.00,2013-01-14 09:21:00,
2013-01-14 03:26:00,13.6,8.9,30.40,WNW,288,6.0,8.0,81,0.00,,---,0.00,VWS V14.00,2013-01-14 09:26:00,
2013-01-14 03:32:00,13.5,8.8,30.40,WNW,288,2.0,4.0,81,0.00,,---,0.00,VWS V14.00,2013-01-14 09:32:00,
2013-01-14 03:37:00,13.5,8.8,30.41,WNW,288,3.0,6.0,81,0.00,,---,0.00,VWS V14.00,2013-01-14 09:37:00,
2013-01-14 03:42:00,13.5,8.8,30.41,WNW,288,3.0,7.0,81,0.00,,---,0.00,VWS V14.00,2013-01-14 09:42:00,
2013-01-14 03:47:00,13.5,8.5,30.41,WNW,288,6.0,6.0,80,0.00,,---,0.00,VWS V14.00,2013-01-14 09:47:00,
2013-01-14 03:52:00,13.3,8.3,30.41,WNW,288,5.0,6.0,80,0.00,,---,0.00,VWS V14.00,2013-01-14 09:52:00,
2013-01-14 03:57:00,13.3,8.3,30.41,WNW,288,7.0,7.0,80,0.00,,---,0.00,VWS V14.00,2013-01-14 09:57:00,
2013-01-14 04:02:00,13.5,8.5,30.41,WNW,288,5.0,6.0,80,0.00,,---,0.00,VWS V14.00,2013-01-14 10:02:00,
2013-01-14 04:07:00,13.5,8.5,30.40,WNW,287,5.0,6.0,80,0.00,,---,0.00,VWS V14.00,2013-01-14 10:07:00,
2013-01-14 04:12:00,13.5,8.5,30.40,WNW,289,6.0,11.0,80,0.00,,---,0.00,VWS V14.00,2013-01-14 10:12:00,
2013-01-14 04:17:00,13.5,8.5,30.40,WNW,289,6.0,6.0,80,0.00,,---,0.00,VWS V14.00,2013-01-14 10:17:00,
2013-01-14 04:22:00,13.5,8.5,30.40,WNW,288,7.0,7.0,80,0.00,,---,0.00,VWS V14.00,2013-01-14 10:22:00,
2013-01-14 04:27:00,13.5,8.5,30.40,WNW,289,7.0,10.0,80,0.00,,---,0.00,VWS V14.00,2013-01-14 10:27:00,
2013-01-14 04:32:00,13.5,8.5,30.40,WNW,289,6.0,9.0,80,0.00,,---,0.00,VWS V14.00,2013-01-14 10:32:00,
2013-01-14 04:37:00,13.3,8.3,30.40,WNW,290,5.0,8.0,80,0.00,,---,0.00,VWS V14.00,2013-01-14 10:37:00,
2013-01-14 04:42:00,13.3,8.3,30.40,WNW,290,9.0,9.0,80,0.00,,---,0.00,VWS V14.00,2013-01-14 10:42:00,
2013-01-14 04:47:00,13.5,8.5,30.40,WNW,290,8.0,11.0,80,0.00,,---,0.00,VWS V14.00,2013-01-14 10:47:00,
2013-01-14 04:52:00,13.5,8.5,30.40,WNW,290,6.0,9.0,80,0.00,,---,0.00,VWS V14.00,2013-01-14 10:52:00,
2013-01-14 04:57:00,13.5,8.5,30.40,WNW,290,9.0,9.0,80,0.00,,---,0.00,VWS V14.00,2013-01-14 10:57:00,
2013-01-14 05:03:00,13.5,8.5,30.40,WNW,291,9.0,12.0,80,0.00,,---,0.00,VWS V14.00,2013-01-14 11:03:00,
2013-01-14 05:08:00,13.5,8.2,30.40,WNW,292,11.0,11.0,79,0.00,,---,0.00,VWS V14.00,2013-01-14 11:08:00,
2013-01-14 05:13:00,13.5,8.2,30.40,WNW,291,5.0,11.0,79,0.00,,---,0.00,VWS V14.00,2013-01-14 11:13:00,
2013-01-14 05:18:00,13.5,8.2,30.40,WNW,292,8.0,12.0,79,0.00,,---,0.00,VWS V14.00,2013-01-14 11:18:00,
2013-01-14 05:23:00,13.5,8.2,30.40,WNW,292,6.0,10.0,79,0.00,,---,0.00,VWS V14.00,2013-01-14 11:23:00,
2013-01-14 05:28:00,13.5,8.2,30.40,WNW,293,7.0,10.0,79,0.00,,---,0.00,VWS V14.00,2013-01-14 11:28:00,
2013-01-14 05:33:00,13.5,8.2,30.40,WNW,293,3.0,8.0,79,0.00,,---,0.00,VWS V14.00,2013-01-14 11:33:00,
2013-01-14 05:38:00,13.5,8.2,30.40,WNW,294,4.0,7.0,79,0.00,,---,0.00,VWS V14.00,2013-01-14 11:38:00,
2013-01-14 05:43:00,13.5,8.2,30.40,WNW,293,5.0,10.0,79,0.00,,---,0.00,VWS V14.00,2013-01-14 11:43:00,
2013-01-14 05:48:00,13.5,8.2,30.41,WNW,294,5.0,11.0,79,0.00,,---,0.00,VWS V14.00,2013-01-14 11:48:00,
2013-01-14 05:53:00,13.5,8.5,30.41,WNW,294,3.0,10.0,80,0.00,,---,0.00,VWS V14.00,2013-01-14 11:53:00,
2013-01-14 05:58:00,13.5,8.5,30.41,WNW,294,4.0,10.0,80,0.00,,---,0.00,VWS V14.00,2013-01-14 11:58:00,
2013-01-14 06:03:00,13.5,8.5,30.41,WNW,299,7.0,10.0,80,0.00,,---,0.00,VWS V14.00,2013-01-14 12:03:00,
2013-01-14 06:08:00,13.3,8.3,30.41,WNW,298,5.0,10.0,80,0.00,,---,0.00,VWS V14.00,2013-01-14 12:08:00,
2013-01-14 06:13:00,13.3,8.3,30.41,WNW,298,4.0,10.0,80,0.00,,---,0.00,VWS V14.00,2013-01-14 12:13:00,
2013-01-14 06:18:00,13.3,8.3,30.42,WNW,297,7.0,10.0,80,0.00,,---,0.00,VWS V14.00,2013-01-14 12:18:00,
2013-01-14 06:23:00,13.3,8.3,30.42,WNW,297,4.0,10.0,80,0.00,,---,0.00,VWS V14.00,2013-01-14 12:23:00,
2013-01-14 06:28:00,13.1,8.1,30.42,WNW,296,6.0,6.0,80,0.00,,---,0.00,VWS V14.00,2013-01-14 12:28:00,
2013-01-14 06:33:00,13.1,8.1,30.42,WNW,295,6.0,6.0,80,0.00,,---,0.00,VWS V14.00,2013-01-14 12:33:00,
2013-01-14 06:38:00,13.1,8.4,30.42,WNW,295,6.0,8.0,81,0.00,,---,0.00,VWS V14.00,2013-01-14 12:38:00,
2013-01-14 06:43:00,13.1,8.4,30.42,WNW,294,4.0,7.0,81,0.00,,---,0.00,VWS V14.00,2013-01-14 12:43:00,
2013-01-14 06:48:00,12.9,7.9,30.43,WNW,291,5.0,10.0,80,0.00,,---,0.00,VWS V14.00,2013-01-14 12:48:00,
2013-01-14 06:53:00,12.9,7.9,30.43,WNW,291,3.0,4.0,80,0.00,,---,0.00,VWS V14.00,2013-01-14 12:53:00,
2013-01-14 06:58:00,12.9,7.9,30.43,WNW,292,2.0,7.0,80,0.00,,---,0.00,VWS V14.00,2013-01-14 12:58:00,
2013-01-14 07:04:00,12.8,8.1,30.43,WNW,292,3.0,4.0,81,0.00,,---,0.00,VWS V14.00,2013-01-14 13:04:00,
2013-01-14 07:09:00,12.8,8.1,30.43,WNW,292,0.0,1.0,81,0.00,,---,0.00,VWS V14.00,2013-01-14 13:09:00,
2013-01-14 07:14:00,12.6,7.9,30.43,WNW,292,1.0,2.0,81,0.00,,---,0.00,VWS V14.00,2013-01-14 13:14:00,
2013-01-14 07:19:00,12.6,7.9,30.43,WNW,292,1.0,5.0,81,0.00,,---,0.00,VWS V14.00,2013-01-14 13:19:00,
2013-01-14 07:24:00,12.6,7.9,30.43,WNW,292,5.0,6.0,81,0.00,,---,0.00,VWS V14.00,2013-01-14 13:24:00,
2013-01-14 07:29:00,12.6,7.9,30.43,WNW,292,4.0,5.0,81,0.00,,---,0.00,VWS V14.00,2013-01-14 13:29:00,
2013-01-14 07:34:00,12.8,8.1,30.43,WNW,292,3.0,5.0,81,0.00,,---,0.00,VWS V14.00,2013-01-14 13:34:00,
2013-01-14 07:39:00,12.9,8.2,30.43,WNW,292,2.0,5.0,81,0.00,,---,0.00,VWS V14.00,2013-01-14 13:39:00,
2013-01-14 07:44:00,13.1,8.4,30.43,WNW,292,4.0,5.0,81,0.00,,---,0.00,VWS V14.00,2013-01-14 13:44:00,
2013-01-14 07:49:00,13.3,8.3,30.43,WNW,292,6.0,6.0,80,0.00,,---,0.00,VWS V14.00,2013-01-14 13:49:00,
2013-01-14 07:54:00,13.3,8.3,30.43,WNW,292,3.0,4.0,80,0.00,,---,0.00,VWS V14.00,2013-01-14 13:54:00,
2013-01-14 07:59:00,13.5,8.5,30.43,WNW,292,3.0,4.0,80,0.00,,---,0.00,VWS V14.00,2013-01-14 13:59:00,
2013-01-14 08:05:00,13.6,8.6,30.43,WNW,292,3.0,5.0,80,0.00,,---,0.00,VWS V14.00,2013-01-14 14:05:00,
2013-01-14 08:10:00,14.0,9.0,30.43,WNW,292,2.0,3.0,80,0.00,,---,0.00,VWS V14.00,2013-01-14 14:10:00,
2013-01-14 08:15:00,14.1,9.1,30.43,WNW,292,2.0,5.0,80,0.00,,---,0.00,VWS V14.00,2013-01-14 14:15:00,
2013-01-14 08:20:00,14.3,9.0,30.43,WNW,292,3.0,5.0,79,0.00,,---,0.00,VWS V14.00,2013-01-14 14:20:00,
2013-01-14 08:25:00,14.4,9.1,30.43,WNW,292,3.0,5.0,79,0.00,,---,0.00,VWS V14.00,2013-01-14 14:25:00,
2013-01-14 08:30:00,14.8,9.5,30.43,WNW,292,2.0,4.0,79,0.00,,---,0.00,VWS V14.00,2013-01-14 14:30:00,
2013-01-14 08:35:00,15.1,9.8,30.43,WNW,292,3.0,3.0,79,0.00,,---,0.00,VWS V14.00,2013-01-14 14:35:00,
2013-01-14 08:40:00,15.2,9.6,30.43,WNW,292,4.0,5.0,78,0.00,,---,0.00,VWS V14.00,2013-01-14 14:40:00,
2013-01-14 08:45:00,15.4,9.8,30.43,WNW,292,4.0,6.0,78,0.00,,---,0.00,VWS V14.00,2013-01-14 14:45:00,
2013-01-14 08:50:00,15.6,10.0,30.44,WNW,292,4.0,4.0,78,0.00,,---,0.00,VWS V14.00,2013-01-14 14:50:00,
2013-01-14 08:55:00,15.7,9.8,30.44,WNW,293,4.0,6.0,77,0.00,,---,0.00,VWS V14.00,2013-01-14 14:55:00,
2013-01-14 09:00:00,15.9,10.0,30.44,WNW,293,6.0,6.0,77,0.00,,---,0.00,VWS V14.00,2013-01-14 15:00:00,
2013-01-14 09:05:00,16.2,10.3,30.43,WNW,293,3.0,5.0,77,0.00,,---,0.00,VWS V14.00,2013-01-14 15:05:00,
2013-01-14 09:11:00,16.4,10.2,30.43,WNW,294,2.0,4.0,76,0.00,,---,0.00,VWS V14.00,2013-01-14 15:11:00,
2013-01-14 09:16:00,17.0,11.1,30.43,WNW,294,3.0,4.0,77,0.00,,---,0.00,VWS V14.00,2013-01-14 15:16:00,
2013-01-14 09:21:00,17.3,11.3,30.42,WNW,294,3.0,4.0,77,0.00,,---,0.00,VWS V14.00,2013-01-14 15:21:00,
2013-01-14 09:26:00,17.5,11.2,30.42,WNW,294,5.0,7.0,76,0.00,,---,0.00,VWS V14.00,2013-01-14 15:26:00,
2013-01-14 09:31:00,17.5,11.2,30.42,WNW,294,4.0,6.0,76,0.00,,---,0.00,VWS V14.00,2013-01-14 15:31:00,
2013-01-14 09:36:00,17.8,11.5,30.42,WNW,294,4.0,5.0,76,0.00,,---,0.00,VWS V14.00,2013-01-14 15:36:00,
2013-01-14 09:41:00,18.1,11.8,30.42,WNW,294,5.0,5.0,76,0.00,,---,0.00,VWS V14.00,2013-01-14 15:41:00,
2013-01-14 09:46:00,18.4,11.8,30.42,WNW,294,2.0,3.0,75,0.00,,---,0.00,VWS V14.00,2013-01-14 15:46:00,
2013-01-14 09:51:00,18.8,12.2,30.43,WNW,294,4.0,4.0,75,0.00,,---,0.00,VWS V14.00,2013-01-14 15:51:00,
2013-01-14 09:56:00,19.1,12.2,30.43,WNW,294,2.0,4.0,74,0.00,,---,0.00,VWS V14.00,2013-01-14 15:56:00,
2013-01-14 10:01:00,19.4,12.5,30.43,WNW,294,4.0,4.0,74,0.00,,---,0.00,VWS V14.00,2013-01-14 16:01:00,
2013-01-14 10:06:00,19.7,12.5,30.46,WNW,294,3.0,4.0,73,0.00,,---,0.00,VWS V14.00,2013-01-14 16:06:00,
2013-01-14 10:12:00,20.2,13.2,30.46,WNW,294,4.0,5.0,74,0.00,,---,0.00,VWS V14.00,2013-01-14 16:12:00,
2013-01-14 10:17:00,20.3,13.0,30.46,WNW,294,2.0,3.0,73,0.00,,---,0.00,VWS V14.00,2013-01-14 16:17:00,
2013-01-14 10:22:00,20.6,13.6,30.46,WNW,294,0.0,0.0,74,0.00,,---,0.00,VWS V14.00,2013-01-14 16:22:00,
2013-01-14 10:27:00,21.0,13.7,30.46,WNW,294,3.0,3.0,73,0.00,,---,0.00,VWS V14.00,2013-01-14 16:27:00,
2013-01-14 10:32:00,20.8,13.5,30.46,WNW,294,1.0,3.0,73,0.00,,---,0.00,VWS V14.00,2013-01-14 16:32:00,
2013-01-14 10:37:00,20.6,13.0,30.45,WNW,294,2.0,5.0,72,0.00,,---,0.00,VWS V14.00,2013-01-14 16:37:00,
2013-01-14 10:42:00,20.5,12.9,30.45,WNW,294,1.0,3.0,72,0.00,,---,0.00,VWS V14.00,2013-01-14 16:42:00,
2013-01-14 10:47:00,20.6,13.0,30.45,WNW,294,3.0,5.0,72,0.00,,---,0.00,VWS V14.00,2013-01-14 16:47:00,
2013-01-14 10:52:00,20.6,13.0,30.45,WNW,294,0.0,2.0,72,0.00,,---,0.00,VWS V14.00,2013-01-14 16:52:00,
2013-01-14 10:57:00,21.0,13.4,30.45,WNW,294,3.0,4.0,72,0.00,,---,0.00,VWS V14.00,2013-01-14 16:57:00,
2013-01-14 11:02:00,20.8,14.1,30.45,WNW,294,2.0,2.0,75,0.00,,---,0.00,VWS V14.00,2013-01-14 17:02:00,
2013-01-14 11:07:00,21.0,13.4,30.45,WNW,294,0.0,1.0,72,0.00,,---,0.00,VWS V14.00,2013-01-14 17:07:00,
2013-01-14 11:12:00,21.1,13.5,30.45,WNW,294,0.0,3.0,72,0.00,,---,0.00,VWS V14.00,2013-01-14 17:12:00,
2013-01-14 11:17:00,21.0,13.7,30.46,WNW,294,4.0,4.0,73,0.00,,---,0.00,VWS V14.00,2013-01-14 17:17:00,
2013-01-14 11:22:00,21.0,13.4,30.46,WNW,294,3.0,5.0,72,0.00,,---,0.00,VWS V14.00,2013-01-14 17:22:00,
2013-01-14 11:27:00,21.0,14.0,30.46,WNW,294,1.0,3.0,74,0.00,,---,0.00,VWS V14.00,2013-01-14 17:27:00,
2013-01-14 11:32:00,21.1,14.1,30.45,WNW,294,2.0,5.0,74,0.00,,---,0.00,VWS V14.00,2013-01-14 17:32:00,
2013-01-14 11:37:00,21.3,14.0,30.45,WNW,294,3.0,4.0,73,0.00,,---,0.00,VWS V14.00,2013-01-14 17:37:00,
2013-01-14 11:43:00,21.0,13.4,30.45,WNW,294,3.0,3.0,72,0.00,,---,0.00,VWS V14.00,2013-01-14 17:43:00,
2013-01-14 11:48:00,21.0,13.7,30.46,WNW,294,2.0,3.0,73,0.00,,---,0.00,VWS V14.00,2013-01-14 17:48:00,
2013-01-14 11:53:00,21.0,14.0,30.46,WNW,294,4.0,6.0,74,0.00,,---,0.00,VWS V14.00,2013-01-14 17:53:00,
2013-01-14 11:58:00,21.0,13.7,30.46,WNW,294,0.0,2.0,73,0.00,,---,0.00,VWS V14.00,2013-01-14 17:58:00,
2013-01-14 12:03:00,21.1,14.1,30.46,WNW,294,0.0,1.0,74,0.00,,---,0.00,VWS V14.00,2013-01-14 18:03:00,
2013-01-14 12:08:00,21.1,14.1,30.46,WNW,294,5.0,6.0,74,0.00,,---,0.00,VWS V14.00,2013-01-14 18:08:00,
2013-01-14 12:13:00,21.1,14.1,30.46,WNW,294,4.0,7.0,74,0.00,,---,0.00,VWS V14.00,2013-01-14 18:13:00,
2013-01-14 12:18:00,21.1,13.8,30.44,WNW,294,1.0,2.0,73,0.00,,---,0.00,VWS V14.00,2013-01-14 18:18:00,
2013-01-14 12:23:00,21.1,13.8,30.44,WNW,294,6.0,6.0,73,0.00,,---,0.00,VWS V14.00,2013-01-14 18:23:00,
2013-01-14 12:29:00,21.0,13.7,30.44,WNW,294,4.0,4.0,73,0.00,,---,0.00,VWS V14.00,2013-01-14 18:29:00,
2013-01-14 12:34:00,21.1,14.1,30.44,WNW,294,0.0,2.0,74,0.00,,---,0.00,VWS V14.00,2013-01-14 18:34:00,
2013-01-14 12:39:00,21.3,14.3,30.44,WNW,294,3.0,4.0,74,0.00,,---,0.00,VWS V14.00,2013-01-14 18:39:00,
2013-01-14 12:44:00,21.3,14.3,30.44,WNW,294,3.0,3.0,74,0.00,,---,0.00,VWS V14.00,2013-01-14 18:44:00,
2013-01-14 12:49:00,21.3,14.3,30.43,WNW,294,0.0,3.0,74,0.00,,---,0.00,VWS V14.00,2013-01-14 18:49:00,
2013-01-14 12:54:00,21.4,14.1,30.43,WNW,294,2.0,3.0,73,0.00,,---,0.00,VWS V14.00,2013-01-14 18:54:00,
2013-01-14 12:59:00,21.4,14.1,30.43,WNW,294,0.0,0.0,73,0.00,,---,0.00,VWS V14.00,2013-01-14 18:59:00,
2013-01-14 13:04:00,21.4,14.4,30.42,WNW,294,1.0,3.0,74,0.00,,---,0.00,VWS V14.00,2013-01-14 19:04:00,
2013-01-14 13:09:00,21.6,14.6,30.42,WNW,294,4.0,5.0,74,0.00,,---,0.00,VWS V14.00,2013-01-14 19:09:00,
2013-01-14 13:14:00,21.4,14.4,30.42,WNW,294,3.0,5.0,74,0.00,,---,0.00,VWS V14.00,2013-01-14 19:14:00,
2013-01-14 13:19:00,21.4,14.1,30.44,WNW,294,1.0,3.0,73,0.00,,---,0.00,VWS V14.00,2013-01-14 19:19:00,
2013-01-14 13:24:00,21.6,14.6,30.44,WNW,294,0.0,2.0,74,0.00,,---,0.00,VWS V14.00,2013-01-14 19:24:00,
2013-01-14 13:30:00,21.8,14.8,30.44,WNW,294,3.0,4.0,74,0.00,,---,0.00,VWS V14.00,2013-01-14 19:30:00,
2013-01-14 13:35:00,21.8,14.5,30.45,WNW,294,2.0,4.0,73,0.00,,---,0.00,VWS V14.00,2013-01-14 19:35:00,
2013-01-14 13:40:00,21.9,14.6,30.45,WNW,294,1.0,3.0,73,0.00,,---,0.00,VWS V14.00,2013-01-14 19:40:00,
2013-01-14 13:45:00,22.2,14.9,30.45,WNW,294,2.0,2.0,73,0.00,,---,0.00,VWS V14.00,2013-01-14 19:45:00,
2013-01-14 13:50:00,22.5,14.9,30.45,WNW,294,2.0,5.0,72,0.00,,---,0.00,VWS V14.00,2013-01-14 19:50:00,
2013-01-14 13:55:00,22.9,15.2,30.45,WNW,294,3.0,4.0,72,0.00,,---,0.00,VWS V14.00,2013-01-14 19:55:00,
2013-01-14 14:00:00,23.0,15.0,30.45,WNW,294,1.0,3.0,71,0.00,,---,0.00,VWS V14.00,2013-01-14 20:00:00,
2013-01-14 14:05:00,23.2,15.2,30.45,WNW,294,4.0,7.0,71,0.00,,---,0.00,VWS V14.00,2013-01-14 20:05:00,
2013-01-14 14:10:00,23.0,14.7,30.45,WNW,294,0.0,5.0,70,0.00,,---,0.00,VWS V14.00,2013-01-14 20:10:00,
2013-01-14 14:15:00,23.3,15.0,30.45,WNW,294,0.0,1.0,70,0.00,,---,0.00,VWS V14.00,2013-01-14 20:15:00,
2013-01-14 14:20:00,23.9,14.9,30.46,WNW,294,1.0,2.0,68,0.00,,---,0.00,VWS V14.00,2013-01-14 20:20:00,
2013-01-14 14:25:00,24.1,15.1,30.46,WNW,294,0.0,2.0,68,0.00,,---,0.00,VWS V14.00,2013-01-14 20:25:00,
2013-01-14 14:30:00,24.5,15.5,30.46,WNW,294,0.0,0.0,68,0.00,,---,0.00,VWS V14.00,2013-01-14 20:30:00,
2013-01-14 14:35:00,24.5,15.5,30.46,WNW,294,0.0,2.0,68,0.00,,---,0.00,VWS V14.00,2013-01-14 20:35:00,
2013-01-14 14:40:00,24.8,15.4,30.46,WNW,294,3.0,3.0,67,0.00,,---,0.00,VWS V14.00,2013-01-14 20:40:00,
2013-01-14 14:45:00,25.0,15.6,30.46,WNW,294,3.0,3.0,67,0.00,,---,0.00,VWS V14.00,2013-01-14 20:45:00,
2013-01-14 14:51:00,25.1,14.6,30.45,WNW,294,0.0,3.0,64,0.00,,---,0.00,VWS V14.00,2013-01-14 20:51:00,
2013-01-14 14:56:00,25.1,15.4,30.45,WNW,294,0.0,2.0,66,0.00,,---,0.00,VWS V14.00,2013-01-14 20:56:00,
2013-01-14 15:01:00,25.6,15.8,30.45,WNW,294,1.0,2.0,66,0.00,,---,0.00,VWS V14.00,2013-01-14 21:01:00,
2013-01-14 15:06:00,25.7,15.9,30.45,WNW,294,1.0,1.0,66,0.00,,---,0.00,VWS V14.00,2013-01-14 21:06:00,
2013-01-14 15:11:00,26.1,16.3,30.45,WNW,294,0.0,0.0,66,0.00,,---,0.00,VWS V14.00,2013-01-14 21:11:00,
2013-01-14 15:16:00,26.6,16.1,30.45,WNW,294,1.0,2.0,64,0.00,,---,0.00,VWS V14.00,2013-01-14 21:16:00,
2013-01-14 15:21:00,26.7,15.4,30.46,WNW,294,3.0,3.0,62,0.00,,---,0.00,VWS V14.00,2013-01-14 21:21:00,
2013-01-14 15:26:00,26.6,15.0,30.46,WNW,294,0.0,1.0,61,0.00,,---,0.00,VWS V14.00,2013-01-14 21:26:00,
2013-01-14 15:32:00,26.4,14.8,30.46,WNW,294,0.0,0.0,61,0.00,,---,0.00,VWS V14.00,2013-01-14 21:32:00,
2013-01-14 15:37:00,26.4,14.8,30.46,WNW,294,0.0,1.0,61,0.00,,---,0.00,VWS V14.00,2013-01-14 21:37:00,
2013-01-14 15:42:00,26.3,15.1,30.46,WNW,294,0.0,0.0,62,0.00,,---,0.00,VWS V14.00,2013-01-14 21:42:00,
2013-01-14 15:47:00,26.1,15.2,30.46,WNW,294,0.0,3.0,63,0.00,,---,0.00,VWS V14.00,2013-01-14 21:47:00,
2013-01-14 15:52:00,26.0,14.8,30.46,WNW,294,0.0,0.0,62,0.00,,---,0.00,VWS V14.00,2013-01-14 21:52:00,
2013-01-14 15:57:00,25.3,14.1,30.46,WNW,294,1.0,1.0,62,0.00,,---,0.00,VWS V14.00,2013-01-14 21:57:00,
2013-01-14 16:02:00,24.5,14.1,30.46,WNW,294,0.0,0.0,64,0.00,,---,0.00,VWS V14.00,2013-01-14 22:02:00,
2013-01-14 16:07:00,24.4,14.3,30.45,WNW,294,2.0,4.0,65,0.00,,---,0.00,VWS V14.00,2013-01-14 22:07:00,
2013-01-14 16:12:00,24.1,14.7,30.45,WNW,294,0.0,0.0,67,0.00,,---,0.00,VWS V14.00,2013-01-14 22:12:00,
2013-01-14 16:17:00,24.2,14.5,30.45,WNW,294,0.0,0.0,66,0.00,,---,0.00,VWS V14.00,2013-01-14 22:17:00,
2013-01-14 16:22:00,24.4,14.7,30.45,WNW,294,0.0,0.0,66,0.00,,---,0.00,VWS V14.00,2013-01-14 22:22:00,
2013-01-14 16:28:00,24.4,14.7,30.45,WNW,294,0.0,0.0,66,0.00,,---,0.00,VWS V14.00,2013-01-14 22:28:00,
2013-01-14 16:33:00,24.4,14.3,30.44,WNW,294,0.0,0.0,65,0.00,,---,0.00,VWS V14.00,2013-01-14 22:33:00,
2013-01-14 16:38:00,24.4,14.3,30.44,WNW,294,0.0,0.0,65,0.00,,---,0.00,VWS V14.00,2013-01-14 22:38:00,
2013-01-14 16:43:00,24.1,14.1,30.44,WNW,294,0.0,0.0,65,0.00,,---,0.00,VWS V14.00,2013-01-14 22:43:00,
2013-01-14 16:48:00,23.8,13.8,30.44,WNW,294,0.0,0.0,65,0.00,,---,0.00,VWS V14.00,2013-01-14 22:48:00,
2013-01-14 16:53:00,23.5,13.5,30.44,WNW,294,0.0,0.0,65,0.00,,---,0.00,VWS V14.00,2013-01-14 22:53:00,
2013-01-14 16:58:00,23.2,12.8,30.44,WNW,294,0.0,0.0,64,0.00,,---,0.00,VWS V14.00,2013-01-14 22:58:00,
2013-01-14 17:03:00,22.7,12.7,30.44,WNW,294,0.0,0.0,65,0.00,,---,0.00,VWS V14.00,2013-01-14 23:03:00,
2013-01-14 17:08:00,22.4,12.4,30.44,WNW,294,0.0,0.0,65,0.00,,---,0.00,VWS V14.00,2013-01-14 23:08:00,
2013-01-14 17:13:00,21.9,12.3,30.44,WNW,294,0.0,0.0,66,0.00,,---,0.00,VWS V14.00,2013-01-14 23:13:00,
2013-01-14 17:19:00,21.6,12.0,30.45,WNW,294,0.0,0.0,66,0.00,,---,0.00,VWS V14.00,2013-01-14 23:19:00,
2013-01-14 17:24:00,21.3,12.1,30.45,WNW,294,0.0,0.0,67,0.00,,---,0.00,VWS V14.00,2013-01-14 23:24:00,
2013-01-14 17:29:00,21.0,11.8,30.45,WNW,294,0.0,0.0,67,0.00,,---,0.00,VWS V14.00,2013-01-14 23:29:00,
2013-01-14 17:34:00,20.5,11.6,30.45,WNW,294,0.0,0.0,68,0.00,,---,0.00,VWS V14.00,2013-01-14 23:34:00,
2013-01-14 17:39:00,20.3,11.8,30.45,WNW,294,0.0,0.0,69,0.00,,---,0.00,VWS V14.00,2013-01-14 23:39:00,
2013-01-14 17:44:00,20.3,12.4,30.45,WNW,294,0.0,0.0,71,0.00,,---,0.00,VWS V14.00,2013-01-14 23:44:00,
2013-01-14 17:49:00,20.3,12.4,30.45,WNW,294,0.0,0.0,71,0.00,,---,0.00,VWS V14.00,2013-01-14 23:49:00,
2013-01-14 17:54:00,20.2,12.3,30.45,WNW,294,0.0,0.0,71,0.00,,---,0.00,VWS V14.00,2013-01-14 23:54:00,
2013-01-14 17:59:00,20.0,12.4,30.45,WNW,294,0.0,0.0,72,0.00,,---,0.00,VWS V14.00,2013-01-14 23:59:00,
2013-01-14 18:04:00,19.7,12.1,30.44,WNW,294,0.0,0.0,72,0.00,,---,0.00,VWS V14.00,2013-01-15 00:04:00,
2013-01-14 18:09:00,19.5,12.0,30.44,WNW,294,0.0,0.0,72,0.00,,---,0.00,VWS V14.00,2013-01-15 00:09:00,
2013-01-14 18:14:00,19.5,12.0,30.44,WNW,294,0.0,0.0,72,0.00,,---,0.00,VWS V14.00,2013-01-15 00:14:00,
2013-01-14 18:19:00,19.1,11.9,30.44,WNW,294,0.0,0.0,73,0.00,,---,0.00,VWS V14.00,2013-01-15 00:19:00,
2013-01-14 18:25:00,18.9,12.0,30.44,WNW,294,0.0,0.0,74,0.00,,---,0.00,VWS V14.00,2013-01-15 00:25:00,
2013-01-14 18:30:00,18.8,11.9,30.44,WNW,294,0.0,0.0,74,0.01,,---,0.01,VWS V14.00,2013-01-15 00:30:00,
2013-01-14 18:35:00,18.6,12.0,30.44,WNW,294,0.0,0.0,75,0.01,,---,0.01,VWS V14.00,2013-01-15 00:35:00,
2013-01-14 18:40:00,18.6,12.3,30.44,WNW,294,0.0,0.0,76,0.01,,---,0.01,VWS V14.00,2013-01-15 00:40:00,
2013-01-14 18:45:00,18.6,12.6,30.44,WNW,294,0.0,0.0,77,0.01,,---,0.01,VWS V14.00,2013-01-15 00:45:00,
2013-01-14 18:50:00,18.6,12.9,30.44,WNW,294,0.0,0.0,78,0.01,,---,0.01,VWS V14.00,2013-01-15 00:50:00,
2013-01-14 18:55:00,18.6,12.9,30.44,WNW,294,0.0,0.0,78,0.01,,---,0.01,VWS V14.00,2013-01-15 00:55:00,
2013-01-14 19:00:00,18.6,12.9,30.44,WNW,294,0.0,0.0,78,0.01,,---,0.01,VWS V14.00,2013-01-15 01:00:00,
2013-01-14 19:05:00,18.6,13.2,30.44,WNW,294,0.0,0.0,79,0.01,,---,0.01,VWS V14.00,2013-01-15 01:05:00,
2013-01-14 19:10:00,18.3,12.9,30.44,WNW,294,0.0,0.0,79,0.01,,---,0.01,VWS V14.00,2013-01-15 01:10:00,
2013-01-14 19:15:00,18.1,12.7,30.44,WNW,294,0.0,0.0,79,0.01,,---,0.01,VWS V14.00,2013-01-15 01:15:00,
2013-01-14 19:21:00,18.0,12.9,30.44,WNW,294,0.0,0.0,80,0.01,,---,0.01,VWS V14.00,2013-01-15 01:21:00,
2013-01-14 19:26:00,17.8,12.7,30.44,WNW,294,0.0,0.0,80,0.01,,---,0.01,VWS V14.00,2013-01-15 01:26:00,
2013-01-14 19:31:00,17.7,12.6,30.44,WNW,294,0.0,0.0,80,0.01,,---,0.01,VWS V14.00,2013-01-15 01:31:00,
2013-01-14 19:36:00,17.5,12.4,30.44,WNW,294,0.0,0.0,80,0.00,,---,0.01,VWS V14.00,2013-01-15 01:36:00,
2013-01-14 19:41:00,17.3,12.2,30.44,WNW,294,0.0,0.0,80,0.00,,---,0.01,VWS V14.00,2013-01-15 01:41:00,
2013-01-14 19:46:00,17.0,12.2,30.44,WNW,294,0.0,0.0,81,0.00,,---,0.01,VWS V14.00,2013-01-15 01:46:00,
2013-01-14 19:51:00,16.9,12.1,30.43,WNW,294,0.0,0.0,81,0.00,,---,0.01,VWS V14.00,2013-01-15 01:51:00,
2013-01-14 19:56:00,16.7,11.9,30.43,WNW,294,0.0,0.0,81,0.00,,---,0.01,VWS V14.00,2013-01-15 01:56:00,
2013-01-14 20:01:00,16.5,11.7,30.43,WNW,294,0.0,0.0,81,0.00,,---,0.01,VWS V14.00,2013-01-15 02:01:00,
2013-01-14 20:06:00,16.5,12.0,30.43,WNW,294,0.0,0.0,82,0.00,,---,0.01,VWS V14.00,2013-01-15 02:06:00,
2013-01-14 20:12:00,16.5,12.0,30.43,WNW,294,0.0,0.0,82,0.00,,---,0.01,VWS V14.00,2013-01-15 02:12:00,
2013-01-14 20:17:00,16.4,11.9,30.43,WNW,294,0.0,0.0,82,0.00,,---,0.01,VWS V14.00,2013-01-15 02:17:00,
2013-01-14 20:22:00,16.4,11.9,30.43,WNW,294,0.0,0.0,82,0.00,,---,0.01,VWS V14.00,2013-01-15 02:22:00,
2013-01-14 20:27:00,16.5,12.2,30.43,WNW,294,0.0,0.0,83,0.00,,---,0.01,VWS V14.00,2013-01-15 02:27:00,
2013-01-14 20:32:00,16.9,12.6,30.43,WNW,294,0.0,0.0,83,0.00,,---,0.01,VWS V14.00,2013-01-15 02:32:00,
2013-01-14 20:37:00,16.9,12.6,30.43,WNW,294,0.0,0.0,83,0.00,,---,0.01,VWS V14.00,2013-01-15 02:37:00,
2013-01-14 20:42:00,16.9,12.6,30.43,WNW,294,0.0,0.0,83,0.00,,---,0.01,VWS V14.00,2013-01-15 02:42:00,
2013-01-14 20:47:00,16.7,12.4,30.43,WNW,294,0.0,0.0,83,0.00,,---,0.01,VWS V14.00,2013-01-15 02:47:00,
2013-01-14 20:53:00,16.5,12.2,30.43,WNW,294,0.0,0.0,83,0.00,,---,0.01,VWS V14.00,2013-01-15 02:53:00,
2013-01-14 20:58:00,16.2,12.0,30.43,WNW,294,0.0,0.0,83,0.00,,---,0.01,VWS V14.00,2013-01-15 02:58:00,
2013-01-14 21:03:00,16.1,11.9,30.43,WNW,294,0.0,0.0,83,0.00,,---,0.01,VWS V14.00,2013-01-15 03:03:00,
2013-01-14 21:08:00,16.1,11.9,30.43,WNW,294,0.0,0.0,83,0.00,,---,0.01,VWS V14.00,2013-01-15 03:08:00,
2013-01-14 21:13:00,16.1,12.1,30.43,WNW,294,0.0,0.0,84,0.00,,---,0.01,VWS V14.00,2013-01-15 03:13:00,
2013-01-14 21:18:00,16.2,12.2,30.42,WNW,294,0.0,0.0,84,0.00,,---,0.01,VWS V14.00,2013-01-15 03:18:00,
2013-01-14 21:23:00,16.4,12.4,30.42,WNW,294,0.0,0.0,84,0.00,,---,0.01,VWS V14.00,2013-01-15 03:23:00,
2013-01-14 21:28:00,16.7,12.7,30.42,WNW,294,0.0,0.0,84,0.00,,---,0.01,VWS V14.00,2013-01-15 03:28:00,
2013-01-14 21:33:00,16.9,12.9,30.41,WNW,294,0.0,0.0,84,0.00,,---,0.01,VWS V14.00,2013-01-15 03:33:00,
2013-01-14 21:38:00,16.9,12.9,30.41,WNW,294,0.0,0.0,84,0.00,,---,0.01,VWS V14.00,2013-01-15 03:38:00,
2013-01-14 21:44:00,16.9,12.9,30.41,WNW,294,0.0,0.0,84,0.00,,---,0.01,VWS V14.00,2013-01-15 03:44:00,
2013-01-14 21:49:00,16.7,12.4,30.41,WNW,294,0.0,0.0,83,0.00,,---,0.01,VWS V14.00,2013-01-15 03:49:00,
2013-01-14 21:54:00,16.5,12.5,30.41,WNW,294,2.0,2.0,84,0.00,,---,0.01,VWS V14.00,2013-01-15 03:54:00,
2013-01-14 21:59:00,16.5,12.5,30.41,WNW,294,1.0,2.0,84,0.00,,---,0.01,VWS V14.00,2013-01-15 03:59:00,
2013-01-14 22:04:00,16.7,12.7,30.41,WNW,294,1.0,3.0,84,0.00,,---,0.01,VWS V14.00,2013-01-15 04:04:00,
2013-01-14 22:09:00,16.9,12.9,30.41,WNW,294,2.0,3.0,84,0.00,,---,0.01,VWS V14.00,2013-01-15 04:09:00,
2013-01-14 22:14:00,17.0,12.7,30.41,WNW,294,1.0,2.0,83,0.00,,---,0.01,VWS V14.00,2013-01-15 04:14:00,
2013-01-14 22:19:00,17.0,12.7,30.42,WNW,294,1.0,1.0,83,0.00,,---,0.01,VWS V14.00,2013-01-15 04:19:00,
2013-01-14 22:25:00,17.0,12.7,30.42,WNW,294,1.0,1.0,83,0.00,,---,0.01,VWS V14.00,2013-01-15 04:25:00,
2013-01-14 22:30:00,17.0,12.5,30.42,WNW,294,1.0,2.0,82,0.00,,---,0.01,VWS V14.00,2013-01-15 04:30:00,
2013-01-14 22:35:00,16.9,12.4,30.42,WNW,294,1.0,2.0,82,0.00,,---,0.01,VWS V14.00,2013-01-15 04:35:00,
2013-01-14 22:40:00,16.9,12.4,30.42,WNW,294,1.0,2.0,82,0.00,,---,0.01,VWS V14.00,2013-01-15 04:40:00,
2013-01-14 22:45:00,16.9,12.4,30.42,WNW,294,2.0,3.0,82,0.00,,---,0.01,VWS V14.00,2013-01-15 04:45:00,
2013-01-14 22:50:00,16.7,12.2,30.42,WNW,294,2.0,3.0,82,0.00,,---,0.01,VWS V14.00,2013-01-15 04:50:00,
2013-01-14 22:55:00,16.7,12.2,30.42,WNW,294,4.0,5.0,82,0.00,,---,0.01,VWS V14.00,2013-01-15 04:55:00,
2013-01-14 23:00:00,16.9,12.4,30.42,WNW,294,3.0,3.0,82,0.00,,---,0.01,VWS V14.00,2013-01-15 05:00:00,
2013-01-14 23:02:00,17.0,12.5,30.42,WNW,294,2.0,3.0,82,0.00,,---,0.01,VWS V14.00,2013-01-15 05:02:00,
2013-01-14 23:07:00,17.0,12.5,30.42,WNW,294,3.0,3.0,82,0.00,,---,0.01,VWS V14.00,2013-01-15 05:07:00,
2013-01-14 23:12:00,17.2,12.4,30.42,WNW,294,3.0,3.0,81,0.00,,---,0.01,VWS V14.00,2013-01-15 05:12:00,
2013-01-14 23:17:00,17.0,12.2,30.42,WNW,294,3.0,3.0,81,0.00,,---,0.01,VWS V14.00,2013-01-15 05:17:00,
2013-01-14 23:23:00,17.0,12.2,30.42,WNW,294,3.0,3.0,81,0.00,,---,0.01,VWS V14.00,2013-01-15 05:23:00,
2013-01-14 23:28:00,17.0,12.2,30.42,WNW,294,2.0,3.0,81,0.00,,---,0.01,VWS V14.00,2013-01-15 05:28:00,
2013-01-14 23:33:00,16.9,12.1,30.42,WNW,294,2.0,2.0,81,0.00,,---,0.01,VWS V14.00,2013-01-15 05:33:00,
2013-01-14 23:38:00,16.9,12.1,30.42,WNW,294,2.0,2.0,81,0.00,,---,0.01,VWS V14.00,2013-01-15 05:38:00,
2013-01-14 23:43:00,16.9,12.1,30.42,WNW,294,2.0,3.0,81,0.00,,---,0.01,VWS V14.00,2013-01-15 05:43:00,
2013-01-14 23:48:00,16.9,12.1,30.42,WNW,294,2.0,3.0,81,0.00,,---,0.01,VWS V14.00,2013-01-15 05:48:00,
2013-01-14 23:53:00,16.9,12.1,30.42,WNW,294,2.0,3.0,81,0.00,,---,0.01,VWS V14.00,2013-01-15 05:53:00,
2013-01-14 23:58:00,16.9,12.1,30.42,WNW,294,2.0,2.0,81,0.00,,---,0.01,VWS V14.00,2013-01-15 05:58:00,